Weather in Nurma

Russia / Saint-Petersburg and Leningrad Oblast     59°33′38″N   31°00′42″E
temp.,
°C
wind,
m/s
gust,
m/s
humid.,
%
clouds,
%
prec.,
mm/h
press.,
hPa
HPBL,
m
21 april, wed
wed2100:00+5ese3871100 0.0 1015250
03:00+4ese2779100 0.0 1014260
06:00+4e2486100 0.0 1011505
09:00+4nne2596100 1.2 1008618
12:00+3n2496100 1.3 1005613
15:00+2nw2499100 2.8 1003249
18:00+2wnw2499100 0.4 1003202
21:00+1w2397100 0.6 1003268
22 april, thu
thu2200:00+2s1397100 0.0 1003142
03:00+2s249861 0.2 1003131
06:00+2s2597100 0.1 1002109
09:00+7ssw357919 0.1 1004367
12:00+11sw465236 0.0 10051265
15:00+13sw374899 0.0 10051948
18:00+12ssw355568 0.1 10051097
21:00+8ssw3889100 1.2 1005377
23 april, fri
fri2300:00+7s3894100 4.6 1005542
03:00+5s3890100 4.7 1005374
06:00+3s399397 0.0 1005335
09:00+6s497491 0.0 10061035
12:00+6ssw496881 0.4 10061580
15:00+8ssw595197 0.7 10072036
18:00+8s485564 0.1 10071509
21:00+4sse38785 0.1 1008248
24 april, sat
sat2400:00+2sse28885 0.0 1008212
03:00+1sse2594100 0.0 1008132
06:000ssw1595100 0.0 1008147
09:00+3ssw2369100 0.0 1007897
12:00+5ssw1260100 0.0 10071201
15:00+5sw2260100 0.0 1006981
18:00+6wsw2262100 0.1 1006968
21:00+3w2382100 0.2 100550
25 april, sun
sun2500:00+1wnw269299 0.0 1004156
03:000w2696100 0.0 1003158
06:000wsw2696100 0.0 1002230
09:00+2wsw3584100 0.0 1002567
12:00+4sw3469100 0.1 10021054
15:00+6wsw3461100 0.2 10021163
18:00+6wsw2355100 0.1 10021210
21:00+3wnw2281100 0.1 100323